Regional Weather Roundup
Issued by NWS

Home | Current Version | Previous Version | Text Only | Print | Product List | Glossary On
Versions: 1 2 3 4 5 6 7 8 9 10 11 12 13 14 15 16 17 18 19 20 21 22 23 24 25 26 27 28 29 30 31 32 33 34 35 36 37 38 39 40 41 42 43 44 45 46 47 48 49 50
815
ASUS43 KFSD 220010
RWRSD

WEATHER ROUNDUP FOR SOUTH DAKOTA
NATIONAL WEATHER SERVICE SIOUX FALLS SD
600 PM CST THU NOV 21 2019

NOTE: "FAIR" INDICATES FEW OR NO CLOUDS BELOW 12,000 FEET WITH NO
SIGNIFICANT WEATHER AND/OR OBSTRUCTIONS TO VISIBILITY.


SDZ001>005-009-010-012>017-220100-
NORTHWEST AND NORTH CENTRAL SOUTH DAKOTA

CITY           SKY/WX    TMP DP  RH WIND       PRES   REMARKS
BUFFALO          N/A     31  17  56 SW3       30.11S
FAITH            N/A     30  15  53 CALM      30.18R
MOBRIDGE       CLEAR     22  14  71 NE6       30.19R WCI  14
$$

SDZ012>016-024>037-041>051-057-063-072>074-220100-
SOUTHWEST AND SOUTH CENTRAL SOUTH DAKOTA

CITY           SKY/WX    TMP DP  RH WIND       PRES   REMARKS
RAPID CTY ARPT CLEAR     23  17  78 E6        30.16R WCI  16
PIERRE         CLEAR     23  16  74 NW6       30.21S WCI  16
CUSTER         CLEAR     21  14  74 SW3       30.06S
ELLSWORTH AFB  CLEAR     27  19  69 E5        30.15R WCI  22
PHILIP         CLEAR     24  14  65 N3        30.22R
PINE RIDGE     CLEAR     25  15  66 E3        30.17R
SPEARFISH      FAIR      23  18  80 MISG      30.12R
WINNER         FAIR      25  16  68 CALM      30.22R
$$

SDZ004>011-016>023-039-040-220100-
NORTHEAST SOUTH DAKOTA

CITY           SKY/WX    TMP DP  RH WIND       PRES   REMARKS
ABERDEEN       CLEAR     22  14  71 NW5       30.22S WCI  16
WATERTOWN      CLEAR     18  14  84 NW5       30.17R WCI  11
BROOKINGS      CLEAR     21  18  88 N9        30.19R WCI  11
SISSETON         N/A     22  16  78 NW13      30.21R WCI  10
$$

SDZ017-020-022-023-036>040-048>070-220100-
SOUTHEAST SOUTH DAKOTA

CITY           SKY/WX    TMP DP  RH WIND       PRES   REMARKS
SIOUX FALLS    PTCLDY    25  17  72 NW7       30.19R WCI  17
HURON          CLEAR     22  18  85 NW6       30.22S WCI  14
CHAMBERLAIN    CLEAR     28  22  75 CALM      30.22S
MADISON        FAIR      23  23 100 N9        30.18S WCI  13
MITCHELL       FAIR      24  18  77 NW6       30.23R WCI  17
YANKTON        CLEAR     24  21  88 W7        30.23R WCI  16
$$

ABBREVIATIONS USED IN REMARKS
   TC - TEMPERATURE IN CELSIUS
  WCI - WIND CHILL INDEX
   HX - HEAT INDEX
  VSB - VISIBILITY





USA.gov is the U.S. government's official web portal to all federal, state and local government web resources and services.